Notices

What's New in latest Release from April 7th, 2021:

- Updated Glossary, including Speed of Maximum Gust, and Total Hourly Precipitation

- Updated national and regional climate services offices contacts and prices information

- Addition of station inventory lists for 1981-2010, 1971-2000, and 1961-1990 Normals.

If you haven't already, please take our survey and provide feedback about our website: https://eccc.sondage-survey.ca/f/LanguageSelection.aspx?s=442ca660-fcf1-47c0-95a9-59707d6fd709

Hourly Data Report for September 13, 2015

IQALUIT CLIMATE
NUNAVUT

63°44'50.000" N
68°32'40.000" W
33.50 m
2402592
71321
XFB

Download Data

Hourly Data (September 2015)
Hourly Data Report for September 13, 2015
TIME
LST
Temp Definition
°C
Dew Point Definition
°C
Rel Hum Definition
%
Precip. Amount Definition
mm

Wind Dir Definition
10's deg

Wind Spd Definition
km/h
Visibility Definition
km
Stn Press Definition
kPa
Hmdx Definition


Wind Chill Definition


Weather Definition


00:00 -0.7 -0.9 99 0.0 16 20   100.90   -6 LegendNANA
01:00 -0.5 -0.6 99 0.0 17 14   100.87   -5 LegendNANA
02:00 -0.5 -0.6 99 0.0 17 16   100.84   -5 LegendNANA
03:00 -0.3 -0.5 99 0.0 16 15   100.84   -5 LegendNANA
04:00 -0.3 -0.5 99 0.0 14 19   100.82   -5 LegendNANA
05:00 0.0 -0.3 98 0.0 15 21   100.81   -5 LegendNANA
06:00 0.4 -0.1 96 0.0 13 16   100.78     LegendNANA
07:00 1.1 0.0 93 0.0 12 14   100.70     LegendNANA
08:00 1.1 0.1 93 0.0 16 8   100.63     LegendNANA
09:00 1.4 0.2 92 0.0 17 13   100.58     LegendNANA
10:00 1.2 1.0 98 0.0 15 13   100.55     LegendNANA
11:00 1.7 1.5 98 0.0 16 18   100.49     LegendNANA
12:00 2.1 1.9 99 0.0 16 13   100.47     LegendNANA
13:00 1.9 1.8 99 0.0 15 17   100.42     LegendNANA
14:00 3.1 2.6 97 0.0 15 22   100.38     LegendNANA
15:00 2.4 2.0 97 0.0 17 16   100.32     LegendNANA
16:00 2.5 2.2 97 0.0 15 21   100.28     LegendNANA
17:00 2.2 1.9 98 0.0 15 23   100.27     LegendNANA
18:00 3.1 2.5 96 0.0 15 32   100.25     LegendNANA
19:00 3.0 2.4 96 0.0 14 32   100.23     LegendNANA
20:00 2.7 2.2 97 0.0 14 27   100.21     LegendNANA
21:00 2.6 2.0 96 0.0 15 27   100.16     LegendNANA
22:00 2.1 1.7 97 0.0 15 22   100.11     LegendNANA
23:00 3.2 2.8 97 0.0 15 29   100.09     LegendNANA

Notes on Data Quality.

Legend

  • E = Estimated
  • M = Missing
  • NA = Not Available*
  • [empty] = Indicates an unobserved value
Date modified: